Regional Weather Roundup
Issued by NWS

Home | Current Version | Previous Version | Graphics & Text | Print | Product List | Glossary On
Versions: 1 2 3 4 5 6 7 8 9 10 11 12 13 14 15 16 17 18 19 20 21 22 23 24 25 26 27 28 29 30 31 32 33 34 35 36 37 38 39 40 41 42 43 44 45 46 47 48 49 50
016
ASUS43 KFSD 180310
RWRSD

WEATHER ROUNDUP FOR SOUTH DAKOTA
NATIONAL WEATHER SERVICE SIOUX FALLS SD
1000 PM CDT TUE OCT 17 2017

NOTE: "FAIR" INDICATES FEW OR NO CLOUDS BELOW 12,000 FEET WITH NO
SIGNIFICANT WEATHER AND/OR OBSTRUCTIONS TO VISIBILITY.


SDZ001>005-009-010-012>017-180400-
NORTHWEST AND NORTH CENTRAL SOUTH DAKOTA

CITY           SKY/WX    TMP DP  RH WIND       PRES   REMARKS
BUFFALO          N/A     56  26  31 SW8       29.70F
FAITH            N/A     53  27  36 S9        29.77F
MOBRIDGE       CLEAR     53  43  68 SE3       29.72F
$$

SDZ012>016-024>037-041>051-057-063-072>074-180400-
SOUTHWEST AND SOUTH CENTRAL SOUTH DAKOTA

CITY           SKY/WX    TMP DP  RH WIND       PRES   REMARKS
RAPID CTY ARPT CLOUDY    48  27  44 W7        29.84S
PIERRE         CLEAR     54  37  52 CALM      29.76F
CUSTER         CLEAR     53  17  24 W6        29.97S
ELLSWORTH AFB  CLOUDY    53  26  35 W5        29.83S
PHILIP         PTCLDY    59  30  33 VRB5      29.78F
PINE RIDGE     CLEAR     42  30  62 CALM      29.88F
SPEARFISH      FAIR      57  23  26 CALM      29.84F
WINNER         FAIR      61  34  36 S12       29.84F
$$

SDZ004>011-016>023-039-040-180400-
NORTHEAST SOUTH DAKOTA

CITY           SKY/WX    TMP DP  RH WIND       PRES   REMARKS
ABERDEEN       CLEAR     49  41  74 S8        29.78F
WATERTOWN      CLEAR     56  41  57 S8        29.84F
BROOKINGS      CLEAR     59  39  47 S12       29.88F
SISSETON         N/A     72  38  29 SW20G30   29.77F
$$

SDZ017-020-022-023-036>040-048>070-180400-
SOUTHEAST SOUTH DAKOTA

CITY           SKY/WX    TMP DP  RH WIND       PRES   REMARKS
SIOUX FALLS    CLEAR     61  46  57 S13       29.91R
HURON          CLEAR     60  41  49 S13       29.82F
CHAMBERLAIN    CLEAR     61  41  47 S10       29.82F
MITCHELL       CLEAR     61  41  47 S13       29.86S
YANKTON        CLEAR     62  41  46 S12       29.92S
$$

ABBREVIATIONS USED IN REMARKS
   TC - TEMPERATURE IN CELSIUS
  WCI - WIND CHILL INDEX
   HX - HEAT INDEX
  VSB - VISIBILITY





USA.gov is the U.S. government's official web portal to all federal, state and local government web resources and services.